Regional Weather Roundup
Issued by NWS Newport/Morehead, NC

Current Version | Previous Version | Graphics & Text | Print | Product List | Glossary Off
Versions: 1 2 3 4 5 6 7 8 9 10 11 12 13 14 15 16 17 18 19 20 21 22 23 24 25 26 27 28 29 30 31 32 33 34 35 36 37 38 39 40 41 42 43 44 45 46 47 48 49 50

000
ASUS42 KMHX 171813
RWRMHX
WEATHER ROUNDUP FOR EASTERN NORTH CAROLINA
NATIONAL WEATHER SERVICE NEWPORT/MOREHEAD CITY NC
100 PM EST SAT FEB 17 2018

NOTE: "FAIR" INDICATES FEW OR NO CLOUDS BELOW 12,000 FEET
WITH NO SIGNIFICANT WEATHER AND/OR OBSTRUCTIONS TO VISIBILITY

NCZ015>017-031-032-045>047-102-103-171900-
NORTH COAST

CITY           SKY/WX    TMP DP  RH WIND       PRES   REMARKS
EDENTON        CLOUDY    49  39  68 E8        30.26F
ELIZABETH CITY CLOUDY    50  39  66 NE14      30.25F
KITTY HAWK     CLOUDY    47  39  75 NE6       30.22F
MANTEO         CLOUDY    48  40  74 E12       30.24F

$$

NCZ045>047-081-094-103-104-171900-
CENTRAL COAST

CITY           SKY/WX    TMP DP  RH WIND       PRES   REMARKS
FRISCO         CLOUDY    51  44  77 NE13G22   30.21F

$$

NCZ095-097-098-100-101-171900-
SOUTHERN COAST

CITY           SKY/WX    TMP DP  RH WIND       PRES   REMARKS
BEAUFORT       CLOUDY    52  44  74 NE9G20    30.20F
CEDAR ISLAND   NOT AVBL
JACKSONVILLE   CLOUDY    52  44  74 NE12      30.19F
PINEY ISLAND   NOT AVBL
WILMINGTON     CLOUDY    52  45  77 NE13      30.19F


$$

NCZ011>013-027>030-043-044-078>080-089-090>093-098-171900-
COASTAL PLAIN

CITY           SKY/WX    TMP DP  RH WIND       PRES   REMARKS
AHOSKIE        CLOUDY    46  37  72 E6        30.25F
CLINTON        PTSUNNY   53  42  66 CALM      30.19F
ELIZABETHTOWN  NOT AVBL
GOLDSBORO      CLOUDY    49  40  70 E10       30.19F
GREENVILLE     CLOUDY    48  37  66 E6        30.23F
HAVELOCK       CLOUDY    52  45  76 E18       30.21F
KENANSVILLE    CLOUDY    50  41  71 SE5       30.20F
KINSTON        CLOUDY    50  41  71 E9        30.21F
NEW BERN       CLOUDY    50  42  74 E8        30.21F
RICHLANDS      CLOUDY    52  44  74 E10       30.19F
ROCKY MOUNT    CLOUDY    47  37  68 VRB6      30.23F
WASHINGTON     CLOUDY    49  40  73 E8        30.22F
WHITEVILLE     CLOUDY    57  44  62 E6        30.17F

$$

AMZ130-135-150-152-154-156-158-170-250-252-270-ANZ085-086-088-633-658-670-171900-
MARINE OBSERVATIONS

STATION/POSITION TIME  TEMP    WIND        PRES    WAVE   SWELL
                       AIR SEA DIR/SP/G            HT/PER HT/PER
                 (UTC) (F)     (DEG/KT/KT) (MB)    (FT/S) (FT/S)
CHESAPEAKE LIGHT NOT AVBL
64 E VA BEACH    1750   49 50   70/ 12/ 16 1024.5    6/ 7   5/ 7
DUCK             1736   45 44   60/ 12/ 13 1023.7
2 E DUCK         1800      45                N/A     4/ 6
OREGON INLET     1736   46 50   20/  9/ 11 1024.0
13E OREGON INLT  1748      45                N/A     5/ 6   5/ 6
HATTERAS CG      1736   51 58   50/ 10/ 15 1023.3
DIAMOND BUOY     1800   63     110/ 14/ 19   N/A
CAPE LOOKOUT     1800           40/ 18/ 21 1022.2
BEAUFORT LAB     1736   51 53   30/  9/ 12 1023.0
30 SE NEW RVR IN 1708   56 68   90/ 17/ 21 1022.6
30 SE NEW RVR IN 1800      68                N/A     6/ 6   2/11
27 SE WRIGHTSVLE 1708   58 66   90/ 19/ 27 1022.9
5 SE WRIGHTSVLE  NOT AVBL
225 S CAPE HAT   1750   72 73  110/ 14/ 16 1021.2    5/ 7   3/ 7
41 SE CHARLESTON 1750   69 69   80/  8/ 10 1020.1    6/ 7   5/ 7

$$




USA.gov is the U.S. government's official web portal to all federal, state and local government web resources and services.